Terug naar catalogus

POPSAT HIP 1

ActiefWetenschapPO
NORAD 40028·PAYLOAD·🇸🇬 Singapore

Gelanceerd Jun 19, 2014 vanaf Dombarovsky

Loading…

Volgende Passages (komende 24 uur)

TLE

VersSource: Space-Track

Epoch: Sep 14, 2026, 14:15 UTC

1 40028U 14033U   26257.59443850  .00005050  00000-0  26523-3 0  9996
2 40028  98.0987 274.3987 0005144 244.0520 116.0181 15.16211395666345

Volg POPSAT HIP 1 in realtime met AllMySat

Download on the App Store